map of SLI home
Great Circle Mapper logo
SLI - Airport
Location
City:  Solwezi, Zambia
ICAO / IATA:FLSW / SLI

Details
Type:Airport (Aerodrome, Airfield)
Latitude:1210'S (-12.167)
Longitude:2622'E (26.367)
Elevation:4547 ft (1386 m)
Variation:2.93W (WMM2015 magnetic declination)
0.07 annual change
Runways:unknown number
Longest:4400 ft (1341 m)

Time
Time Zone:UTC+2
Local Time:

Weather
TAF:FLSW 311600Z 3118/0124 09005KT 9000 SHRA FEW031CB BKN035 PROB40
TEMPO 0100/0102 7000 TSRA FEW025CB SCT080
BECMG 0108/0111 36005KT 9999 SCT031 PROB40
TEMPO 0112/0116 9000 -TSRA FEW031CB BKN035

Related Locations
Nearby:
Farthest:ITO: 11903 mi / 19155 km
Hilo [Hilo Intl], Hawaii, HI, US

Find:

   beyond  
but within

Other Information
Maps:
NOTAMs:
Links:
Sources:

  
flag of Zambia   

Sectional Chart

Flight Planning
at skyvector.com

Satellite Image

Google Maps Satellite View

 

Copyright © 2004-2015 Karl L. Swartz. All rights reserved.
The Great Circle Mapper name and logo are trademarks of the Great Circle Mapper.
All other trademarks mentioned herein belong to their respective owners.
Please see credits for attibutions and further copyright information.

  Follow gcmap on Facebook Follow gcmap on Twitter Follow gcmap on Google+

hCard Microformat

Geo Microformat